FW1784 Weather Reports


Display with metric or nautical units.
time (UTC)temp
F
wind
direction
speed
MPH
gust
MPH
rain 1hr
in
rain 24hr
in
rain mn
in
humidity
%
barometer
mb
20260905171502 75 54 1.0 5.0 0.00 0.00 0.00 61 1010.3
20260905170106 75 96 2.0 7.0 0.00 0.00 0.00 62 1010.4
20260905164606 75 337 2.0 8.0 0.00 0.00 0.00 64 1010.5
20260905163005 75 42 4.0 8.0 0.00 0.00 0.00 61 1010.5
20260905161603 74 69 2.0 6.0 0.00 0.00 0.00 64 1010.4
20260905160110 72 119 0.0 8.0 0.00 0.00 0.00 67 1010.5
20260905154502 73 355 3.0 6.0 0.00 0.00 0.00 64 1010.5
20260905153002 73 80 2.0 7.0 0.00 0.00 0.00 62 1010.5
20260905151605 73 84 4.0 9.0 0.00 0.00 0.00 62 1010.6
20260905150004 74 310 2.0 10.0 0.00 0.00 0.00 60 1010.6
20260905144503 73 337 3.0 12.0 0.00 0.00 0.00 63 1010.7
20260905143106 73 93 4.0 9.0 0.00 0.00 0.00 65 1010.4
20260905141502 72 53 1.0 5.0 0.00 0.00 0.00 68 1010.4
20260905140104 72 360 3.0 9.0 0.00 0.00 0.00 65 1010.4
20260905134502 72 71 1.0 8.0 0.00 0.00 0.00 66 1010.3
20260905133006 71 49 1.0 8.0 0.00 0.00 0.00 72 1010.5
20260905131602 70 74 1.0 11.0 0.00 0.00 0.00 72 1010.8
20260905124603 65 138 0.0 4.0 0.00 0.00 0.00 93 1011.0
20260905123105 63 96 0.0 0.0 0.00 0.00 0.00 97 1010.9
20260905121503 61 96 0.0 0.0 0.00 0.00 0.00 97 1010.9
20260905114510 59 96 0.0 0.0 0.00 0.00 0.00 98 1010.6
20260905113002 59 96 0.0 0.0 0.00 0.00 0.00 98 1010.4
20260905111629 58 96 0.0 0.0 0.00 0.00 0.00 97 1010.4
20260905110113 58 96 0.0 0.0 0.00 0.00 0.00 97 1010.1
20260905104507 58 96 0.0 0.0 0.00 0.00 0.00 97 1009.7
20260905103009 57 96 0.0 0.0 0.00 0.00 0.00 97 1009.7
20260905101506 58 96 0.0 0.0 0.00 0.00 0.00 97 1009.4
20260905100053 58 96 0.0 0.0 0.00 0.00 0.00 97 1009.4
20260905094704 58 96 0.0 0.0 0.00 0.00 0.00 96 1009.4
20260905093057 58 96 0.0 0.0 0.00 0.00 0.00 96 1009.4
20260905091556 58 96 0.0 0.0 0.00 0.00 0.00 96 1009.4
20260905090049 58 96 0.0 0.0 0.00 0.00 0.00 96 1009.4
20260905084558 59 96 0.0 0.0 0.00 0.00 0.00 96 1009.4
20260905083045 59 96 0.0 0.0 0.00 0.00 0.00 95 1009.4
20260905081543 59 96 0.0 0.0 0.00 0.00 0.00 95 1009.4
20260905080027 59 96 0.0 0.0 0.00 0.00 0.00 94 1009.3
20260905074526 60 96 0.0 0.0 0.00 0.00 0.00 94 1009.4
20260905073024 60 96 0.0 0.0 0.00 0.00 0.00 94 1009.5
20260905071521 60 96 0.0 0.0 0.00 0.00 0.00 93 1009.8
20260905070004 60 96 0.0 0.0 0.00 0.00 0.00 93 1009.9
20260905064503 60 96 0.0 0.0 0.00 0.25 0.00 93 1009.9
20260905063003 60 96 0.0 0.0 0.00 0.25 0.00 93 1010.0
20260905061607 61 96 0.0 0.0 0.00 0.25 0.00 92 1010.0
20260905060003 61 96 0.0 0.0 0.00 0.25 0.00 92 1010.2
20260905054502 62 96 0.0 0.0 0.00 0.31 0.00 91 1010.1
20260905053104 63 96 0.0 0.0 0.00 0.31 0.00 91 1010.3
20260905051508 63 96 0.0 0.0 0.00 0.31 0.00 91 1010.4
20260905050106 63 96 0.0 2.0 0.00 0.31 0.00 89 1010.4
20260905044604 63 97 0.0 0.0 0.00 0.31 0.00 92 1010.6
20260905043003 63 97 0.0 0.0 0.00 0.31 0.00 92 1010.5
20260905041610 63 97 0.0 0.0 0.00 0.31 0.00 91 1010.5
20260905040002 63 97 0.0 0.0 0.00 0.31 0.31 90 1010.7
20260905034503 64 97 0.0 1.0 0.00 0.31 0.31 91 1010.6
20260905033109 64 97 0.0 0.0 0.00 0.31 0.31 91 1010.6
20260905031616 65 97 0.0 0.0 0.00 0.31 0.31 91 1010.4
20260905030003 65 97 0.0 0.0 0.00 0.31 0.31 91 1010.5
20260905024503 65 97 0.0 0.0 0.00 0.31 0.31 89 1010.5
20260905023007 65 97 0.0 0.0 0.00 0.31 0.31 90 1010.7
20260905021614 65 97 0.0 0.0 0.00 0.31 0.31 88 1010.8
20260905020003 65 97 0.0 2.0 0.00 0.31 0.31 88 1010.8
20260905014503 65 97 0.0 0.0 0.00 0.31 0.31 87 1010.6
20260905013120 65 97 0.0 0.0 0.00 0.31 0.31 88 1010.7
20260905011613 65 97 0.0 2.0 0.00 0.31 0.31 87 1010.9
20260905010002 66 96 0.0 0.0 0.00 0.31 0.31 86 1010.8
20260905004507 66 96 0.0 0.0 0.00 0.31 0.31 87 1010.8
20260905003008 66 96 0.0 0.0 0.00 0.31 0.31 87 1010.7
20260905001602 67 96 0.0 0.0 0.00 0.31 0.31 87 1010.7
20260904234603 68 96 0.0 0.0 0.00 0.31 0.31 82 1010.2
20260904233002 69 96 0.0 0.0 0.00 0.31 0.31 81 1010.1
20260904231602 70 96 0.0 0.0 0.00 0.31 0.31 80 1010.1
20260904230003 71 96 0.0 1.0 0.00 0.31 0.31 76 1010.1
20260904224502 72 94 0.0 1.0 0.00 0.31 0.31 80 1010.1
20260904223111 73 85 0.0 0.0 0.00 0.31 0.31 76 1010.0
20260904221627 74 84 0.0 4.0 0.00 0.31 0.31 72 1009.8
20260904220003 75 153 0.0 3.0 0.00 0.31 0.31 70 1009.8
20260904214502 77 247 0.0 2.0 0.00 0.31 0.31 70 1009.7
20260904213102 78 247 0.0 3.0 0.00 0.31 0.31 65 1009.7
20260904211502 80 187 0.0 3.0 0.00 0.31 0.31 62 1009.6
20260904210003 80 60 0.0 3.0 0.00 0.31 0.31 57 1009.8
20260904204502 80 128 0.0 3.0 0.00 0.31 0.31 62 1010.0
20260904203102 80 213 1.0 6.0 0.00 0.31 0.31 58 1010.0
20260904201503 80 59 0.0 8.0 0.00 0.31 0.31 63 1009.9
20260904200119 80 197 1.0 7.0 0.00 0.31 0.31 63 1010.0
20260904194604 80 187 1.0 6.0 0.00 0.31 0.31 57 1010.1
20260904193006 80 85 0.0 4.0 0.00 0.31 0.31 62 1010.1
20260904191636 80 113 1.0 3.0 0.00 0.31 0.31 61 1010.1
20260904190002 81 20 1.0 5.0 0.00 0.31 0.31 56 1010.3
20260904184502 81 73 1.0 5.0 0.00 0.31 0.31 54 1010.4
20260904183102 81 53 2.0 6.0 0.00 0.31 0.31 54 1010.6
20260904181503 80 67 2.0 7.0 0.00 0.31 0.31 56 1010.6
20260904174604 79 160 1.0 6.0 0.00 0.31 0.31 66 1010.7